[[{"header":{"parameterUnit":"m.s-1","parameterCategory":1,"la1":30.2991,"la2":30.254,"lo1":-89.0895,"lo2":-89.0444,"dy":0.0017,"dx":0.0017,"nx":28,"ny":28,"refTime":"2023-03-20T15:00:00:Z","depth":0,"parameterNumber":2,"parameterNumberName":"U-component_of_WINDS"},"data":[0,0,0,0,0,0,0,0,0,0,0,0,0,0,0,0,0,0,0,0,0,0,0,0,0,0,0,0,0,0,0,0,0,0,0,0,0,0,0,0,0,0,0,0,0,0,0,0,0,0,0,0,0,0,0,0,0,0,-4.2708,-4.2708,0,-4.2768,-4.2769,-4.277,-4.2688,-4.2685,-4.2682,-4.2679,-4.2738,-4.2743,-4.2747,0,0,0,0,0,0,0,0,0,0,0,0,0,-4.2518,-4.2522,-4.2708,-4.2708,-4.2709,-4.2768,-4.2769,-4.277,-4.2689,-4.2685,-4.2681,-4.2678,-4.2737,-4.2742,-4.2747,0,0,0,0,0,0,0,0,0,0,0,0,0,-4.2592,-4.2523,-4.2707,-4.2676,-4.2674,-4.2768,-4.2769,-4.277,-4.2689,-4.2685,-4.2681,-4.2676,-4.2735,-4.2742,-4.2748,-4.2875,0,0,-4.2768,-4.277,0,0,0,0,0,0,0,0,-4.2588,-4.2599,-4.268,-4.2678,-4.2676,-4.2716,-4.2724,-4.2805,-4.269,-4.2683,-4.2679,-4.2674,-4.2734,-4.2741,-4.2761,-4.2878,-4.2881,-4.2768,-4.2772,-4.2775,-4.2777,0,0,0,0,0,0,0,-4.2583,-4.2596,-4.2731,-4.2681,-4.2679,-4.2657,-4.2663,-4.2739,-4.2732,-4.2684,-4.2678,-4.2686,-4.2732,-4.2755,-4.2762,-4.2881,-4.2768,-4.2774,-4.2778,-4.278,-4.3103,-4.3108,0,0,0,0,0,0,-4.2582,-4.2592,-4.2729,-4.2733,-4.262,-4.2664,-4.2671,-4.2708,-4.2731,-4.2731,-4.269,-4.2682,-4.2747,-4.2755,-4.2764,-4.2912,-4.2775,-4.2781,-4.2784,-4.3098,-4.3104,-4.3109,0,0,0,0,0,0,-4.2578,-4.2595,-4.2727,-4.2661,-4.2676,-4.2672,-4.2714,-4.2711,-4.2734,-4.2736,-4.2734,-4.2715,-4.2743,-4.2755,-4.2848,-4.2913,-4.2784,-4.279,-4.3093,-4.31,-4.3107,-4.3211,0,0,0,0,0,0,-4.2573,-4.2594,-4.2643,-4.2663,-4.268,-4.2811,-4.2719,-4.2715,-4.2746,-4.2736,-4.2759,-4.2759,-4.2741,-4.2839,-4.2854,-4.292,-4.2795,-4.3087,-4.3096,-4.3104,-4.3202,-4.3221,-4.3237,0,0,0,0,0,-4.2567,-4.267,-4.2646,-4.2663,-4.2742,-4.2815,-4.2825,-4.2803,-4.2751,-4.28,-4.2801,-4.2758,-4.2905,-4.2849,-4.2866,-4.2934,-4.3083,-4.3093,-4.3104,-4.3194,-4.3217,-4.3237,0,0,0,0,0,0,-4.2657,-4.2672,-4.2645,-4.2759,-4.2786,-4.2801,-4.2861,-4.2829,-4.2871,-4.286,-4.2831,-4.2837,-4.2935,-4.2945,-4.2882,-4.3057,-4.2985,-4.2999,-4.3047,-4.3069,-4.3087,-4.3081,-4.28,0,0,0,0,0,-4.269,-4.275,-4.2759,-4.2858,-4.2874,-4.2866,-4.2897,-4.2878,-4.2905,-4.2916,-4.2924,-4.2951,-4.3002,-4.3037,-4.3085,-4.3204,-4.3206,-4.3259,-4.3277,-4.3291,-4.3303,-4.3364,-4.3387,-4.3144,-4.3144,-4.3144,0,0,-4.2759,-4.2775,-4.2814,-4.2877,-4.2896,-4.2956,-4.2876,-4.2944,-4.2988,-4.2926,-4.3013,-4.3021,-4.3049,-4.3155,-4.3201,-4.3165,-4.3371,-4.3305,-4.3317,-4.332,-4.3377,-4.34,-4.342,-4.3151,-4.315,-4.3149,0,0,-4.2914,-4.2934,-4.3017,-4.3038,-4.3068,-4.3062,-4.3083,-4.3103,-4.3105,-4.3194,-4.3148,-4.32,-4.329,-4.3311,-4.3334,-4.3498,-4.3459,-4.3515,-4.3606,-4.3666,-4.3685,-4.3701,-4.3757,-4.3777,-4.3528,-4.3528,-4.3528,0,-4.2995,-4.3085,-4.3063,-4.3134,-4.3162,-4.3111,-4.3193,-4.3215,-4.3259,-4.3279,-4.3238,-4.335,-4.3366,-4.3474,-4.3514,-4.3536,-4.3556,-4.351,-4.3684,-4.3701,-4.3716,-4.3768,-4.379,-4.3534,-4.3533,-4.3533,-4.3532,0,-4.3182,-4.3246,-4.3309,-4.3353,-4.3389,-4.3466,-4.3454,-4.3493,-4.3471,-4.347,-4.3559,-4.3576,-4.3625,-4.3651,-4.3631,-4.3756,-4.3732,-4.3689,-4.3614,-4.3746,-4.3794,-4.3814,-4.3543,-4.3541,-4.3539,-4.3537,0,0,-4.3393,-4.3425,-4.3448,-4.3467,-4.3497,-4.3545,-4.362,-4.3669,-4.3701,-4.3734,-4.3793,-4.3872,-4.3831,-4.3857,-4.3839,-4.3892,-4.4018,-4.3842,-4.3842,-4.3871,-4.4154,-4.4183,-4.4207,-4.3994,-4.3997,-4.4001,-4.415,0,-4.3545,-4.3673,-4.3656,-4.3778,-4.3835,-4.3788,-4.3852,-4.3877,-4.3878,-4.3925,-4.3926,-4.398,-4.3925,-4.394,-4.399,-4.3992,-4.4073,-4.3981,-4.4046,-4.4048,-4.4036,-4.4233,-4.4265,-4.4405,-4.4169,-4.4173,-4.4175,0,-4.3739,-4.378,-4.3908,-4.3928,-4.3952,-4.401,-4.4052,-4.41,-4.4127,-4.4123,-4.4153,-4.4125,-4.4198,-4.4126,-4.4223,-4.4161,-4.4187,-4.4192,-4.4197,-4.4198,-4.4116,-4.4236,-4.445,-4.4469,-4.4205,-4.4203,-4.4201,0,-4.3875,-4.3962,-4.405,-4.4068,-4.4095,-4.4136,-4.4149,-4.4172,-4.4202,-4.4241,-4.4259,-4.4306,-4.433,-4.4366,-4.435,-4.43,-4.445,-4.4377,-4.4447,-4.4447,-4.4477,-4.4475,-4.4693,-4.4501,-4.4501,-4.45,-4.45,0,-4.4045,-4.4124,-4.4111,-4.4164,-4.4251,-4.4231,-4.4317,-4.4324,-4.4345,-4.4398,-4.4361,-4.4411,-4.439,-4.4439,-4.4428,-4.4509,-4.4521,-4.4519,-4.4514,-4.4519,-4.4519,-4.4533,-4.4521,-4.4506,-4.4505,-4.4504,-4.4503,0,-4.421,-4.4205,-4.4296,-4.4315,-4.4321,-4.4384,-4.4399,-4.4448,-4.4447,-4.4514,-4.4529,-4.4527,-4.4582,-4.4572,-4.4632,-4.4625,-4.4725,-4.4711,-4.4716,-4.4711,-4.4779,-4.4772,-4.5011,-4.504,-4.4833,-4.4835,-4.4837,0,-4.4316,-4.4376,-4.4402,-4.4435,-4.4451,-4.4505,-4.4536,-4.4518,-4.4552,-4.4587,-4.4632,-4.4684,-4.4724,-4.4814,-4.4817,-4.4863,-4.4846,-4.4927,-4.4853,-4.4856,-4.4843,-4.4838,-4.4842,-4.494,-4.4943,-4.4945,-4.4946,0,-4.4504,-4.4499,-4.4545,-4.4591,-4.463,-4.4665,-4.4696,-4.4725,-4.471,-4.475,-4.4806,-4.4837,-4.49,-4.4951,-4.4994,-4.5005,-4.4973,-4.4971,-4.4988,-4.4992,-4.4991,-4.4989,-4.4752,-4.4964,-4.4962,-4.4961,-4.496,-4.4959,-4.464,-4.469,-4.4716,-4.4769,-4.4791,-4.4821,-4.4867,-4.4873,-4.492,-4.4969,-4.4956,-4.5019,-4.5044,-4.5098,-4.5116,-4.5164,-4.5133,-4.516,-4.5166,-4.5172,-4.5178,-4.4988,-4.5172,-4.5171,-4.5171,-4.517,-4.517,0,-4.4823,-4.4837,-4.4886,-4.4931,-4.4973,-4.4941,-4.4974,-4.501,-4.5066,-4.5093,-4.5134,-4.5197,-4.5247,-4.5255,-4.5301,-4.5338,-4.5324,-4.535,-4.5345,-4.5348,-4.5205,-4.5183,-4.5361,-4.5361,-4.5361,-4.5361,-4.5361,-4.5361,-4.4922,-4.5004,-4.5002,-4.5095,-4.5108,-4.517,-4.5192,-4.5219,-4.5239,-4.5312,-4.5354,-4.5359,-4.5377,-4.5425,-4.5469,-4.5469,-4.5486,-4.5518,-4.5513,-4.5378,-4.5358,-4.534,-4.5319,-4.5523,-4.5523,-4.5651,-4.5652,-4.5653]},{"header":{"parameterUnit":"m.s-1","parameterCategory":1,"la1":30.2991,"la2":30.254,"lo1":-89.0895,"lo2":-89.0444,"dy":0.0017,"dx":0.0017,"nx":28,"ny":28,"refTime":"2023-03-20T15:00:00:Z","depth":0,"parameterNumber":3,"parameterNumberName":"V-component_of_WINDS"},"data":[0,0,0,0,0,0,0,0,0,0,0,0,0,0,0,0,0,0,0,0,0,0,0,0,0,0,0,0,0,0,0,0,0,0,0,0,0,0,0,0,0,0,0,0,0,0,0,0,0,0,0,0,0,0,0,0,0,0,0.5794,0.5792,0,0.566,0.5659,0.5657,0.5498,0.5496,0.5493,0.5491,0.5354,0.5352,0.5351,0,0,0,0,0,0,0,0,0,0,0,0,0,0.591,0.5909,0.5794,0.5792,0.579,0.5661,0.5659,0.5657,0.5499,0.5496,0.5493,0.549,0.5354,0.5352,0.5351,0,0,0,0,0,0,0,0,0,0,0,0,0,0.5827,0.5909,0.5794,0.5696,0.5686,0.5661,0.5659,0.5656,0.5499,0.5496,0.5492,0.5489,0.5355,0.5353,0.5351,0.5411,0,0,0.5344,0.5343,0,0,0,0,0,0,0,0,0.5832,0.5823,0.5712,0.5703,0.5691,0.5592,0.5649,0.5574,0.55,0.557,0.5491,0.5487,0.5436,0.5427,0.541,0.5405,0.5399,0.5344,0.5343,0.5342,0.5341,0,0,0,0,0,0,0,0.5838,0.5827,0.5741,0.5711,0.5698,0.5658,0.5642,0.5634,0.5525,0.5564,0.5552,0.5538,0.5429,0.5412,0.5405,0.5397,0.5344,0.5342,0.5341,0.534,0.5434,0.5438,0,0,0,0,0,0,0.5858,0.5833,0.5745,0.5737,0.5754,0.5659,0.5641,0.5628,0.5525,0.5506,0.5542,0.5531,0.5418,0.5408,0.54,0.5464,0.5342,0.534,0.5339,0.5431,0.5435,0.5439,0,0,0,0,0,0,0.5861,0.5852,0.575,0.5782,0.5766,0.5661,0.5647,0.5627,0.5609,0.5508,0.5488,0.5544,0.5414,0.5403,0.541,0.5457,0.5339,0.5337,0.5426,0.5432,0.5437,0.5594,0,0,0,0,0,0,0.5865,0.5854,0.5876,0.5783,0.5765,0.5763,0.565,0.5627,0.5607,0.5592,0.5505,0.5487,0.5411,0.5414,0.5408,0.5452,0.5336,0.5421,0.5429,0.5435,0.5584,0.5604,0.5621,0,0,0,0,0,0.587,0.5926,0.5878,0.5869,0.5791,0.5766,0.5755,0.5666,0.5611,0.5632,0.5567,0.549,0.5453,0.5416,0.5407,0.5452,0.5418,0.5427,0.5435,0.5576,0.56,0.5621,0,0,0,0,0,0,0.6026,0.5912,0.5858,0.5885,0.5837,0.5739,0.5764,0.5695,0.5661,0.5649,0.554,0.5522,0.5542,0.5497,0.5457,0.5506,0.5424,0.5432,0.5534,0.5557,0.5575,0.5585,0.5334,0,0,0,0,0,0.6064,0.6054,0.5954,0.5988,0.5966,0.587,0.5856,0.5791,0.5737,0.5715,0.565,0.56,0.5577,0.5564,0.5537,0.5577,0.5555,0.5603,0.5622,0.5638,0.5646,0.5663,0.5684,0.5467,0.5467,0.5467,0,0,0.6142,0.6078,0.6078,0.6018,0.5972,0.5965,0.5853,0.585,0.5843,0.5714,0.5717,0.5668,0.5604,0.5628,0.5635,0.5592,0.5701,0.5649,0.5662,0.5661,0.5674,0.5695,0.5713,0.5473,0.5472,0.5471,0,0,0.6279,0.623,0.6252,0.621,0.6143,0.6078,0.6084,0.5997,0.596,0.5961,0.5864,0.5854,0.5817,0.5775,0.575,0.5872,0.58,0.5866,0.5964,0.5983,0.6,0.6014,0.6058,0.6075,0.5874,0.5874,0.5875,0,0.6384,0.6368,0.6272,0.6275,0.6251,0.6135,0.6157,0.612,0.6048,0.6034,0.5987,0.5937,0.5886,0.5899,0.5929,0.5912,0.5915,0.5876,0.6005,0.6019,0.6031,0.6072,0.6089,0.5883,0.5882,0.5881,0.588,0,0.6501,0.6492,0.6518,0.6452,0.6431,0.6443,0.6349,0.6339,0.6277,0.6217,0.622,0.6154,0.6112,0.611,0.6049,0.6114,0.6089,0.6025,0.5941,0.6062,0.6098,0.6113,0.5895,0.5892,0.5889,0.5887,0,0,0.6733,0.6614,0.6625,0.6594,0.6512,0.6503,0.651,0.6469,0.6463,0.6417,0.642,0.6392,0.6332,0.6303,0.6235,0.6252,0.6353,0.6185,0.6182,0.6219,0.6421,0.6471,0.6491,0.6305,0.6307,0.6309,0.6427,0,0.6856,0.6862,0.6776,0.6805,0.6795,0.6685,0.669,0.6641,0.6586,0.6569,0.6507,0.6489,0.6411,0.6392,0.6404,0.6339,0.6393,0.6329,0.6307,0.6307,0.6327,0.6509,0.6561,0.6676,0.6441,0.6443,0.6445,0,0.7,0.6963,0.6992,0.6909,0.6901,0.6908,0.6864,0.685,0.6791,0.6749,0.6718,0.6641,0.6642,0.6563,0.6562,0.6521,0.6506,0.6473,0.6475,0.647,0.6384,0.651,0.671,0.6727,0.6466,0.6464,0.6463,0,0.7167,0.7125,0.7136,0.7113,0.7016,0.7024,0.6984,0.6921,0.6902,0.6864,0.685,0.6812,0.6792,0.6764,0.6679,0.6629,0.6689,0.6602,0.6654,0.6657,0.6672,0.6672,0.6873,0.6663,0.6662,0.6662,0.6662,0,0.7314,0.7336,0.721,0.7217,0.7239,0.7139,0.7163,0.7112,0.7058,0.7053,0.6954,0.6952,0.684,0.6825,0.6759,0.6769,0.676,0.6726,0.6708,0.6735,0.674,0.6725,0.6715,0.6666,0.6665,0.6665,0.6664,0,0.7504,0.7421,0.7426,0.7335,0.7312,0.7332,0.7253,0.7256,0.7194,0.7189,0.7182,0.7086,0.7063,0.6976,0.6932,0.6887,0.6919,0.6884,0.6939,0.6927,0.6985,0.6981,0.7183,0.7205,0.6981,0.6983,0.6985,0,0.7604,0.7618,0.7528,0.7518,0.7482,0.7467,0.7448,0.735,0.7334,0.7268,0.7279,0.7249,0.7219,0.7188,0.7114,0.7079,0.7043,0.7116,0.7037,0.7064,0.7045,0.7045,0.7046,0.7134,0.7137,0.7139,0.7141,0,0.7789,0.7747,0.7722,0.7684,0.7664,0.7629,0.7588,0.7585,0.7477,0.7463,0.7439,0.7416,0.7371,0.7342,0.7296,0.7254,0.718,0.7167,0.7177,0.7205,0.7236,0.7221,0.6986,0.7162,0.716,0.7159,0.7157,0.7157,0.7936,0.7944,0.7882,0.7859,0.7818,0.7782,0.778,0.7719,0.7697,0.7653,0.7597,0.758,0.7521,0.7451,0.7415,0.74,0.7358,0.7373,0.7377,0.7383,0.7396,0.7239,0.7391,0.739,0.7389,0.7389,0.7388,0,0.8117,0.8071,0.8051,0.7997,0.7979,0.7911,0.7862,0.7851,0.7838,0.7789,0.7762,0.7734,0.7705,0.7629,0.7593,0.7596,0.7561,0.759,0.7589,0.758,0.7435,0.743,0.7619,0.7619,0.7619,0.7619,0.7619,0.7619,0.8208,0.8218,0.8169,0.8158,0.8111,0.8095,0.8073,0.8039,0.8,0.7974,0.795,0.79,0.784,0.7799,0.777,0.7748,0.7739,0.778,0.7747,0.7613,0.7591,0.757,0.7564,0.7779,0.7779,0.7894,0.7895,0.7896]}]]